Wind_Speed
9 8 8 8 8 8 8 8 9 9 8 8 9 10 10 10 10 11 10 10 12 13 14 15 16 16 17 17 18 18 18 18 18 18 19 19 19 20 20 20 21 21 21
9 9 8 8 8 8 9 9 9 8 8 9 9 9 9 10 10 11 11 11 12 12 13 14 15 16 17 17 18 18 18 19 19 19 19 19 20 20 21 21 21 22 23
9 9 9 8 8 8 9 9 10 9 9 9 9 9 10 10 11 11 12 12 12 12 13 13 14 14 15 16 16 17 17 18 18 19 19 19 20 21 21 21 21 22 23
11 10 9 9 9 9 9 10 10 10 10 10 10 9 10 10 11 11 11 11 12 12 13 13 14 15 15 16 17 18 18 18 19 19 19 19 20 21 21 22 22 23 23
12 11 10 10 10 11 11 11 11 11 11 11 11 11 11 11 11 11 12 12 12 13 14 14 15 16 17 18 18 19 19 20 20 21 21 21 22 22 22 23 23 23 24
12 11 11 11 11 12 13 13 13 13 13 13 13 13 13 13 13 13 13 14 14 14 15 15 16 17 18 19 20 21 21 21 22 22 23 23 23 23 24 24 24 25 25
13 13 12 12 13 13 13 14 14 14 14 14 15 15 14 14 14 15 15 15 15 15 16 16 16 17 18 19 19 20 21 22 23 23 23 24 24 24 24 25 25 25 26
15 15 14 14 14 14 15 15 16 16 16 16 16 16 16 16 16 16 17 18 18 18 17 17 17 18 18 19 20 20 21 21 22 22 22 23 23 23 24 24 25 26 26
16 15 15 15 15 16 16 16 16 17 17 18 19 18 18 18 18 19 19 19 18 18 18 18 19 19 20 20 21 21 21 21 22 22 22 23 23 23 24 24 25 25 25
16 16 16 16 16 17 17 17 17 17 18 19 19 19 19 19 19 20 21 20 18 18 19 19 19 20 21 21 21 21 21 22 22 22 23 23 24 24 24 24 23 23 23
18 18 18 18 17 17 18 18 18 18 19 19 20 20 20 20 20 21 21 19 19 19 19 19 20 20 21 22 22 22 22 22 23 22 23 24 24 24 24 24 23 23 23
20 20 19 19 18 18 18 19 19 19 20 19 20 20 20 21 21 21 21 20 20 20 20 21 21 21 21 22 22 22 22 23 23 23 24 24 24 24 24 24 24 24 24
20 20 20 20 20 19 19 19 19 19 19 20 20 21 21 21 22 22 21 21 22 22 22 22 22 22 23 23 23 22 23 23 24 24 24 24 24 24 24 24 24 24 25
21 21 21 21 21 21 21 21 21 21 21 22 22 23 22 21 22 22 21 22 22 22 23 23 23 24 24 23 23 23 24 24 24 24 24 24 24 24 24 24 24 24 25
22 22 22 22 22 22 22 22 22 22 23 22 22 22 22 22 22 23 23 23 23 23 24 24 24 24 24 24 24 24 24 24 24 23 23 23 23 23 23 23 24 25 25
22 23 23 23 22 23 23 23 22 22 23 23 22 22 22 23 23 23 23 24 24 24 25 25 25 25 24 24 24 24 24 23 23 23 23 23 22 22 23 23 24 25 25
22 22 22 22 22 22 22 22 23 23 23 23 22 23 23 23 23 23 23 24 25 25 25 25 25 25 25 25 25 24 24 24 23 23 23 23 24 23 24 24 25 26 26
22 22 22 22 22 22 23 23 23 23 22 22 23 23 24 24 24 24 24 24 25 25 25 25 25 25 24 25 24 24 24 23 23 23 24 23 24 24 24 25 26 26 26
22 22 22 22 22 22 22 22 22 22 22 22 22 22 23 23 24 24 24 24 24 24 24 24 24 24 24 24 24 24 23 23 24 24 24 24 24 25 26 26 26 26 26
22 22 21 21 21 21 21 20 20 20 21 21 21 21 21 21 21 22 23 23 24 24 24 24 24 24 24 24 24 24 24 24 24 24 24 25 25 26 26 26 26 26 27
22 22 21 20 20 20 19 19 18 18 19 19 19 19 19 19 20 21 21 22 23 23 23 23 24 24 24 24 24 24 24 24 25 25 25 25 26 26 26 27 27 27 27
21 21 20 20 20 20 19 19 18 18 18 18 18 18 18 18 19 19 21 22 22 22 22 23 23 22 22 22 23 24 24 25 25 25 26 26 26 26 26 27 27 27 27
21 21 20 20 20 20 19 19 18 18 18 18 18 18 18 19 19 20 21 21 21 22 22 21 21 21 22 22 23 24 24 25 25 25 26 26 27 27 27 27 27 27 27
21 20 20 19 19 19 19 19 18 18 18 18 18 19 19 20 20 20 21 21 21 21 21 21 22 22 22 22 23 24 24 25 25 25 26 26 27 28 27 27 27 26 26
19 19 19 19 19 19 19 20 20 20 19 19 19 19 19 20 20 20 21 21 20 20 21 21 21 22 22 23 23 24 25 25 25 25 26 26 27 27 26 27 27 26 26
17 18 18 19 19 20 20 20 20 20 20 20 20 20 20 20 20 20 20 19 20 20 21 21 21 22 22 23 23 24 25 26 25 25 25 25 26 26 26 26 26 26 26
Wind_Direction
260 266 264 259 256 256 259 260 260 261 265 268 270 267 271 273 269 270 273 269 269 268 267 266 265 265 267 268 268 269 271 271 271 271 274 276 278 277 277 275 274 273 272
261 268 266 262 258 257 257 256 258 263 267 269 275 274 273 274 274 271 271 270 272 272 273 274 272 270 270 272 271 270 272 274 275 275 278 277 277 278 279 277 275 273 272
263 270 270 267 263 259 253 249 254 260 267 271 277 278 275 275 275 273 272 271 272 274 275 276 277 276 274 273 274 273 274 275 277 278 279 280 280 279 279 279 277 274 273
263 267 266 262 262 262 260 255 259 262 266 274 282 284 282 280 280 278 277 275 275 276 277 278 279 279 278 275 275 275 275 276 277 279 279 280 281 280 280 280 281 279 279
260 263 262 262 262 261 261 259 260 264 268 274 282 284 282 280 281 280 276 275 275 277 277 276 278 279 279 276 274 274 274 276 277 278 279 280 281 281 281 280 280 280 280
257 261 262 261 261 261 262 261 262 264 266 271 277 281 279 276 275 277 278 278 276 278 280 279 280 281 280 278 277 276 276 276 278 279 279 280 280 281 282 283 282 281 281
253 257 260 260 262 262 262 261 263 265 267 270 273 276 275 274 274 275 276 277 278 280 282 282 283 283 284 282 281 280 279 278 279 280 281 281 283 282 282 282 282 281 281
256 258 261 265 264 263 262 263 264 266 269 270 274 276 274 272 274 276 277 278 278 281 283 285 284 284 286 286 286 284 282 282 282 281 282 283 284 284 282 282 282 282 282
261 260 263 266 266 267 266 265 264 265 268 269 273 276 276 276 277 277 278 278 278 281 283 284 284 285 287 289 288 287 285 284 284 284 283 284 285 286 286 285 284 285 284
262 263 265 268 270 270 269 269 268 267 269 270 272 275 277 277 278 277 277 278 280 282 284 283 283 284 287 289 288 287 286 287 287 287 287 286 285 286 286 286 286 286 285
260 263 265 268 270 271 271 271 269 270 271 272 272 274 276 276 276 275 277 278 281 283 283 283 284 287 289 290 288 287 286 287 287 287 288 289 288 288 286 287 286 286 286
260 263 265 267 271 271 272 271 269 272 273 271 272 275 276 276 276 276 276 278 280 281 283 284 284 285 287 289 288 287 286 285 286 287 290 290 289 288 286 286 286 287 288
261 264 266 268 271 272 272 271 270 271 272 272 274 275 276 277 276 276 276 279 281 281 282 282 283 285 286 286 286 286 285 285 286 288 289 288 287 285 285 286 286 287 288
262 265 267 268 270 271 272 273 273 272 273 273 274 275 275 278 278 277 278 280 282 282 283 284 284 285 286 286 286 287 287 287 287 288 289 288 286 285 284 285 286 287 289
263 266 267 269 271 271 272 274 274 275 275 274 275 274 274 276 279 278 277 279 281 281 282 284 284 284 284 286 287 288 288 289 289 290 291 290 290 288 287 287 288 289 290
263 265 267 269 270 269 271 272 273 274 276 276 276 275 275 277 277 278 278 278 279 281 282 283 283 283 284 285 287 288 289 288 288 289 290 291 290 290 289 289 290 292 291
264 266 268 269 271 271 273 273 273 274 276 276 275 275 275 277 277 279 279 279 279 281 282 282 282 282 282 284 286 287 288 288 288 288 289 289 289 290 291 291 291 292 294
266 268 270 271 272 273 274 273 273 273 274 276 276 276 276 277 278 279 280 280 280 281 282 282 283 283 283 285 285 286 287 287 287 289 290 290 291 291 291 292 292 293 294
266 268 270 272 273 274 274 273 272 272 274 276 277 278 278 278 278 279 280 280 282 281 280 282 283 284 285 287 287 286 286 286 287 289 291 291 292 292 292 292 292 293 293
265 267 269 271 272 273 274 274 273 272 272 274 277 277 279 279 279 280 281 282 282 283 282 282 284 285 286 287 287 285 286 287 287 289 291 292 293 293 293 293 292 292 291
267 266 267 270 272 273 274 274 273 271 271 273 276 277 279 280 281 282 282 283 284 284 284 283 284 285 285 285 285 285 285 286 287 288 290 292 292 293 293 294 294 293 293
267 265 265 268 271 272 271 271 272 272 272 273 275 277 279 282 284 285 285 287 286 285 284 284 285 285 285 286 286 285 284 285 287 289 291 292 292 292 293 293 294 294 294
266 265 265 267 268 270 270 270 271 271 272 273 275 278 281 284 287 289 290 289 288 285 284 283 283 285 287 288 288 288 286 285 287 289 291 292 293 293 293 293 293 294 294
264 263 262 263 265 267 268 269 270 270 272 274 276 279 282 285 287 289 290 291 289 286 283 282 283 285 288 289 289 288 289 290 291 291 291 292 293 293 293 293 293 294 295
262 260 262 264 265 266 267 268 269 270 271 273 276 280 283 286 288 289 290 291 290 288 287 285 285 285 287 289 289 288 290 291 293 294 295 295 295 294 294 294 293 293 293
260 261 264 266 266 265 265 267 268 269 271 273 276 278 282 285 287 289 289 290 291 292 291 289 287 286 288 290 289 289 291 293 294 294 296 298 298 297 297 297 296 294 293
Height
5805 5805 5805 5805 5805 5806 5806 5807 5807 5806 5806 5806 5806 5806 5806 5806 5806 5806 5806 5806 5806 5805 5805 5806 5806 5806 5806 5806 5806 5805 5805 5805 5806 5806 5805 5804 5803 5803 5802 5802 5801 5801 5800
5802 5803 5803 5803 5803 5803 5804 5804 5805 5805 5804 5804 5804 5804 5804 5804 5803 5803 5803 5803 5803 5803 5802 5802 5802 5802 5802 5802 5801 5801 5801 5800 5801 5801 5800 5799 5799 5798 5797 5796 5796 5795 5794
5800 5800 5800 5800 5800 5801 5801 5802 5802 5803 5802 5802 5802 5801 5801 5801 5800 5800 5800 5800 5800 5799 5799 5799 5798 5797 5797 5797 5797 5796 5796 5795 5795 5795 5795 5794 5793 5792 5792 5791 5790 5789 5788
5798 5797 5798 5798 5798 5798 5799 5799 5800 5800 5800 5799 5799 5799 5798 5798 5798 5797 5797 5797 5796 5796 5796 5795 5794 5794 5793 5793 5792 5792 5791 5791 5790 5790 5789 5788 5788 5787 5786 5785 5784 5783 5782
5794 5794 5795 5795 5796 5796 5796 5797 5797 5797 5797 5797 5797 5796 5796 5795 5795 5794 5794 5793 5793 5792 5792 5791 5790 5790 5789 5788 5788 5787 5786 5786 5785 5784 5783 5782 5782 5781 5780 5779 5778 5777 5775
5791 5792 5792 5792 5793 5793 5793 5793 5793 5794 5794 5793 5793 5793 5793 5792 5792 5791 5791 5790 5789 5789 5788 5787 5786 5785 5784 5783 5783 5782 5781 5780 5779 5778 5778 5777 5776 5775 5774 5772 5771 5770 5769
5788 5788 5789 5789 5789 5790 5790 5790 5790 5790 5790 5790 5790 5789 5789 5788 5788 5787 5787 5786 5785 5784 5784 5783 5781 5780 5779 5778 5777 5776 5775 5774 5773 5772 5771 5770 5769 5768 5767 5766 5764 5763 5762
5784 5785 5785 5785 5786 5786 5786 5786 5786 5786 5786 5786 5785 5785 5784 5784 5783 5783 5782 5781 5781 5780 5779 5778 5777 5776 5774 5773 5772 5771 5769 5768 5767 5766 5765 5764 5762 5761 5760 5759 5757 5756 5755
5779 5780 5781 5781 5781 5781 5781 5781 5781 5781 5781 5781 5781 5780 5780 5779 5779 5778 5777 5776 5776 5775 5774 5773 5772 5770 5769 5768 5767 5765 5764 5762 5761 5759 5758 5757 5755 5754 5753 5751 5750 5748 5747
5775 5775 5776 5776 5776 5776 5776 5776 5775 5776 5776 5775 5775 5775 5774 5774 5773 5773 5772 5771 5770 5769 5768 5767 5766 5765 5764 5762 5761 5759 5758 5756 5755 5753 5752 5750 5749 5747 5746 5744 5743 5741 5740
5770 5770 5771 5771 5771 5771 5771 5771 5770 5770 5770 5770 5770 5769 5769 5768 5767 5767 5766 5766 5765 5764 5763 5762 5761 5759 5758 5756 5755 5753 5752 5750 5748 5747 5745 5743 5742 5740 5739 5737 5736 5735 5733
5764 5765 5765 5766 5766 5766 5765 5765 5765 5765 5765 5764 5764 5763 5763 5762 5762 5761 5760 5760 5759 5758 5757 5756 5754 5753 5752 5750 5748 5747 5745 5744 5742 5740 5739 5737 5735 5733 5731 5730 5729 5728 5726
5758 5759 5759 5760 5760 5759 5759 5759 5759 5759 5759 5759 5758 5758 5757 5756 5755 5754 5754 5753 5752 5751 5750 5749 5748 5747 5745 5743 5742 5740 5738 5737 5735 5733 5731 5730 5728 5726 5724 5723 5722 5720 5719
5751 5752 5752 5753 5753 5753 5753 5753 5753 5753 5752 5752 5751 5751 5750 5749 5749 5748 5747 5746 5745 5744 5743 5742 5741 5740 5738 5737 5735 5733 5731 5729 5728 5726 5724 5722 5720 5719 5717 5716 5715 5713 5711
5744 5745 5746 5746 5746 5746 5746 5746 5746 5746 5745 5744 5744 5743 5743 5743 5742 5741 5740 5739 5738 5738 5736 5735 5734 5732 5731 5730 5728 5726 5724 5722 5721 5719 5717 5715 5714 5712 5711 5709 5707 5706 5704
5737 5738 5739 5739 5739 5739 5739 5739 5739 5739 5738 5738 5737 5737 5736 5736 5735 5734 5733 5732 5731 5731 5729 5728 5727 5725 5724 5722 5721 5719 5717 5715 5714 5712 5710 5709 5707 5705 5704 5702 5700 5698 5696
5729 5730 5731 5731 5731 5731 5731 5731 5731 5731 5730 5730 5730 5729 5729 5728 5728 5727 5726 5725 5724 5723 5722 5721 5719 5717 5716 5715 5713 5712 5710 5708 5707 5705 5704 5702 5700 5699 5697 5695 5693 5691 5688
5722 5723 5723 5723 5724 5724 5724 5724 5724 5723 5723 5722 5722 5722 5721 5721 5720 5719 5718 5717 5716 5715 5714 5713 5711 5710 5709 5707 5706 5704 5703 5701 5700 5699 5697 5695 5693 5691 5690 5687 5685 5683 5680
5715 5715 5716 5716 5716 5716 5716 5716 5716 5716 5716 5715 5715 5714 5713 5713 5712 5711 5710 5710 5708 5707 5706 5705 5703 5702 5701 5699 5698 5697 5696 5694 5693 5692 5690 5688 5686 5684 5682 5680 5677 5675 5673
5707 5708 5708 5708 5709 5708 5708 5708 5708 5708 5708 5708 5707 5707 5706 5706 5705 5704 5703 5702 5701 5700 5699 5697 5696 5694 5693 5692 5690 5690 5688 5687 5686 5684 5683 5681 5679 5677 5674 5672 5669 5667 5664
5700 5700 5701 5701 5701 5701 5701 5701 5701 5701 5701 5701 5701 5700 5699 5699 5698 5697 5696 5695 5694 5693 5691 5689 5688 5687 5685 5684 5683 5682 5681 5680 5678 5677 5675 5673 5671 5668 5666 5664 5661 5659 5656
5693 5694 5694 5695 5695 5695 5695 5695 5695 5695 5695 5695 5694 5694 5693 5693 5692 5691 5690 5688 5687 5685 5683 5682 5680 5679 5678 5677 5676 5674 5673 5672 5671 5669 5667 5665 5662 5660 5658 5655 5653 5650 5648
5686 5687 5687 5688 5688 5688 5688 5688 5688 5689 5689 5689 5688 5688 5688 5687 5686 5685 5683 5681 5680 5678 5676 5675 5673 5672 5671 5670 5668 5667 5666 5664 5662 5661 5659 5657 5655 5652 5649 5647 5644 5642 5640
5679 5680 5680 5681 5681 5682 5682 5682 5683 5683 5683 5683 5682 5682 5681 5680 5679 5678 5676 5675 5673 5671 5669 5668 5667 5665 5664 5663 5661 5660 5658 5656 5655 5653 5651 5649 5646 5643 5641 5638 5636 5634 5631
5672 5673 5674 5674 5675 5675 5676 5676 5676 5676 5677 5676 5676 5676 5675 5674 5673 5671 5670 5668 5666 5664 5663 5661 5660 5659 5657 5656 5654 5652 5651 5649 5647 5645 5643 5640 5637 5635 5632 5630 5627 5625 5623
5666 5667 5668 5668 5668 5669 5669 5669 5670 5670 5670 5670 5670 5669 5669 5668 5666 5665 5663 5662 5660 5658 5656 5654 5653 5652 5650 5649 5647 5645 5643 5641 5639 5637 5634 5632 5629 5627 5624 5621 5618 5616 5614